EW5026 Weather Reports


Display with metric or nautical units.
time (UTC)temp
F
wind
direction
speed
MPH
gust
MPH
rain 1hr
in
rain 24hr
in
rain mn
in
humidity
%
barometer
mb
20260904204013 95 215 0.0 7.0 0.00 0.00 0.00 61 1010.3
20260904203512 94 175 2.0 7.0 0.00 0.00 0.00 63 1010.3
20260904203013 94 153 3.0 6.0 0.00 0.00 0.00 62 1010.4
20260904202512 94 217 0.0 6.0 0.00 0.00 0.00 64 1010.5
20260904202009 94 188 2.0 6.0 0.00 0.00 0.00 64 1010.6
20260904201509 94 141 2.0 7.0 0.00 0.00 0.00 62 1010.6
20260904201009 94 205 2.0 7.0 0.00 0.00 0.00 64 1010.6
20260904200508 94 152 4.0 8.0 0.00 0.00 0.00 66 1010.6
20260904200008 94 117 2.0 8.0 0.00 0.00 0.00 62 1010.7
20260904195510 94 24 2.0 4.0 0.00 0.00 0.00 62 1010.8
20260904195008 94 279 0.0 6.0 0.00 0.00 0.00 61 1010.8
20260904194506 94 125 1.0 6.0 0.00 0.00 0.00 59 1010.9
20260904194006 94 119 0.0 3.0 0.00 0.00 0.00 62 1011.0
20260904193507 94 144 0.0 3.0 0.00 0.00 0.00 61 1011.1
20260904193010 93 134 0.0 4.0 0.00 0.00 0.00 60 1011.1
20260904192505 93 134 2.0 6.0 0.00 0.00 0.00 61 1011.2
20260904192004 93 96 0.0 6.0 0.00 0.00 0.00 60 1011.3
20260904191504 93 93 2.0 6.0 0.00 0.00 0.00 64 1011.4
20260904191004 93 37 1.0 4.0 0.00 0.00 0.00 64 1011.5
20260904190504 93 123 1.0 4.0 0.00 0.00 0.00 65 1011.4
20260904190004 93 117 0.0 6.0 0.00 0.00 0.00 63 1011.6
20260904185503 92 130 1.0 6.0 0.00 0.00 0.00 67 1011.7
20260904185003 92 42 0.0 6.0 0.00 0.00 0.00 63 1011.7
20260904184505 92 83 2.0 6.0 0.00 0.00 0.00 63 1011.7
20260904184004 92 127 1.0 8.0 0.00 0.00 0.00 65 1011.8
20260904183507 92 109 2.0 8.0 0.00 0.00 0.00 63 1011.9
20260904183003 92 92 2.0 8.0 0.00 0.00 0.00 67 1012.2
20260904182507 92 42 4.0 8.0 0.00 0.00 0.00 64 1012.2
20260904182002 92 47 2.0 9.0 0.00 0.00 0.00 65 1012.3
20260904181508 92 39 4.0 9.0 0.00 0.00 0.00 65 1012.3
20260904181004 92 51 5.0 8.0 0.00 0.00 0.00 64 1012.5
20260904180504 92 342 4.0 7.0 0.00 0.00 0.00 67 1012.6
20260904180002 92 59 3.0 7.0 0.00 0.00 0.00 66 1012.7
20260904175502 92 28 3.0 8.0 0.00 0.00 0.00 65 1012.8
20260904175002 92 313 4.0 8.0 0.00 0.00 0.00 64 1012.7
20260904174502 92 5 3.0 8.0 0.00 0.00 0.00 65 1012.8
20260904174003 92 25 4.0 10.0 0.00 0.00 0.00 65 1012.9
20260904173502 92 15 6.0 10.0 0.00 0.00 0.00 65 1012.9
20260904173004 91 23 5.0 9.0 0.00 0.00 0.00 66 1012.9
20260904172501 92 13 5.0 8.0 0.00 0.00 0.00 64 1012.9
20260904172002 93 360 5.0 8.0 0.00 0.00 0.00 63 1012.8
20260904171501 93 30 2.0 6.0 0.00 0.00 0.00 63 1012.8
20260904171059 93 317 1.0 6.0 0.00 0.00 0.00 66 1012.8
20260904170559 93 350 3.0 6.0 0.00 0.00 0.00 64 1012.8
20260904170059 93 5 3.0 6.0 0.00 0.00 0.00 64 1012.9
20260904165559 93 302 1.0 6.0 0.00 0.00 0.00 65 1012.8
20260904165059 93 300 2.0 7.0 0.00 0.00 0.00 63 1012.8
20260904164615 93 300 2.0 7.0 0.00 0.00 0.00 67 1012.8
20260904164057 93 13 0.0 5.0 0.00 0.00 0.00 67 1012.7
20260904163556 92 251 2.0 5.0 0.00 0.00 0.00 65 1012.7
20260904163055 92 333 1.0 5.0 0.00 0.00 0.00 65 1012.7
20260904162554 92 318 2.0 5.0 0.00 0.00 0.00 64 1012.8
20260904162053 91 256 1.0 5.0 0.00 0.00 0.00 67 1012.7
20260904161558 91 264 2.0 8.0 0.00 0.00 0.00 66 1012.7
20260904161052 91 286 2.0 8.0 0.00 0.00 0.00 68 1012.6
20260904160551 91 187 4.0 9.0 0.00 0.00 0.00 64 1012.5
20260904160050 91 252 0.0 6.0 0.00 0.00 0.00 69 1012.6
20260904155549 91 263 2.0 6.0 0.00 0.00 0.00 67 1012.5
20260904155048 90 222 1.0 5.0 0.00 0.00 0.00 71 1012.5
20260904154551 90 226 0.0 3.0 0.00 0.00 0.00 70 1012.5
20260904154046 89 257 0.0 3.0 0.00 0.00 0.00 71 1012.5
20260904153545 89 284 0.0 3.0 0.00 0.00 0.00 71 1012.5
20260904153053 89 200 0.0 4.0 0.00 0.00 0.00 74 1012.6
20260904152542 88 226 1.0 5.0 0.00 0.00 0.00 71 1012.6
20260904152040 88 263 1.0 6.0 0.00 0.00 0.00 73 1012.6
20260904151540 87 225 1.0 6.0 0.00 0.00 0.00 75 1012.6
20260904151041 86 222 1.0 7.0 0.00 0.00 0.00 72 1012.6
20260904150540 86 273 0.0 7.0 0.00 0.00 0.00 72 1012.6
20260904150040 86 256 2.0 8.0 0.00 0.00 0.00 70 1012.7
20260904145540 87 263 3.0 8.0 0.00 0.00 0.00 70 1012.6
20260904145039 87 236 4.0 8.0 0.00 0.00 0.00 70 1012.5
20260904144538 87 248 4.0 8.0 0.00 0.00 0.00 70 1012.5
20260904144037 87 214 4.0 10.0 0.00 0.00 0.00 72 1012.3
20260904143536 87 228 5.0 10.0 0.00 0.00 0.00 70 1012.3
20260904143036 87 267 4.0 9.0 0.00 0.00 0.00 70 1012.2
20260904142535 87 232 2.0 7.0 0.00 0.00 0.00 73 1012.2
20260904142036 87 250 3.0 7.0 0.00 0.00 0.00 72 1012.2
20260904141532 86 253 2.0 6.0 0.00 0.00 0.00 73 1012.1
20260904141031 86 236 1.0 8.0 0.00 0.00 0.00 74 1012.1
20260904140530 86 288 2.0 8.0 0.00 0.00 0.00 74 1012.1
20260904140034 85 242 2.0 5.0 0.00 0.00 0.00 73 1012.1
20260904135534 85 244 1.0 7.0 0.00 0.00 0.00 74 1012.2
20260904135031 85 229 0.0 7.0 0.00 0.00 0.00 76 1012.1
20260904134528 85 249 1.0 5.0 0.00 0.00 0.00 76 1012.1
20260904134026 84 185 1.0 4.0 0.00 0.00 0.00 76 1012.1
20260904133525 84 229 0.0 4.0 0.00 0.00 0.00 78 1012.0
20260904133031 84 218 0.0 4.0 0.00 0.00 0.00 78 1012.0
20260904132523 83 249 0.0 4.0 0.00 0.00 0.00 78 1012.1
20260904132022 83 184 0.0 0.0 0.00 0.00 0.00 81 1012.1
20260904131520 82 184 0.0 0.0 0.00 0.00 0.00 81 1011.9
20260904131019 81 184 0.0 0.0 0.00 0.00 0.00 83 1011.9
20260904130517 81 184 0.0 0.0 0.00 0.00 0.00 84 1011.8
20260904130016 80 184 0.0 1.0 0.00 0.00 0.00 87 1011.8
20260904125514 79 184 0.0 2.0 0.00 0.00 0.00 87 1011.7
20260904125013 78 184 0.0 4.0 0.00 0.00 0.00 86 1011.5
20260904124512 78 181 0.0 4.0 0.00 0.00 0.00 88 1011.3
20260904124010 77 194 1.0 4.0 0.00 0.00 0.00 89 1011.2
20260904123508 77 188 1.0 4.0 0.00 0.00 0.00 90 1011.1
20260904123008 76 165 1.0 4.0 0.00 0.00 0.00 91 1011.0
20260904122508 75 202 1.0 3.0 0.00 0.00 0.00 92 1010.9
20260904122007 74 171 0.0 3.0 0.00 0.00 0.00 94 1010.9
20260904121507 74 173 1.0 3.0 0.00 0.00 0.00 94 1010.9
20260904121007 73 173 1.0 2.0 0.00 0.00 0.00 94 1010.8
20260904120506 73 173 0.0 2.0 0.00 0.00 0.00 94 1010.8
20260904120007 73 173 0.0 3.0 0.00 0.00 0.00 94 1010.8
20260904115507 72 173 1.0 3.0 0.00 0.00 0.00 94 1010.7
20260904115007 72 180 1.0 3.0 0.00 0.00 0.00 94 1010.8
20260904114506 72 144 0.0 0.0 0.00 0.00 0.00 94 1010.7
20260904114006 72 144 0.0 0.0 0.00 0.00 0.00 93 1010.7
20260904113506 72 144 0.0 0.0 0.00 0.00 0.00 93 1010.7
20260904113008 71 144 0.0 0.0 0.00 0.00 0.00 93 1010.7
20260904112506 72 144 0.0 0.0 0.00 0.00 0.00 93 1010.7
20260904112004 72 144 0.0 0.0 0.00 0.00 0.00 93 1010.7
20260904111509 72 144 0.0 0.0 0.00 0.00 0.00 93 1010.7
20260904111005 72 144 0.0 0.0 0.00 0.00 0.00 93 1010.7
20260904110503 72 144 0.0 0.0 0.00 0.00 0.00 93 1010.7
20260904110011 72 144 0.0 0.0 0.00 0.00 0.00 93 1010.8
20260904105503 72 144 0.0 0.0 0.00 0.00 0.00 93 1010.9
20260904105003 72 144 0.0 0.0 0.00 0.00 0.00 93 1010.9
20260904104503 72 144 0.0 0.0 0.00 0.00 0.00 93 1010.9
20260904104003 72 144 0.0 0.0 0.00 0.00 0.00 93 1010.9
20260904103502 72 144 0.0 0.0 0.00 0.00 0.00 93 1010.9
20260904103003 72 144 0.0 0.0 0.00 0.00 0.00 93 1010.9
20260904102502 72 144 0.0 0.0 0.00 0.00 0.00 93 1010.9
20260904102002 72 144 0.0 0.0 0.00 0.00 0.00 93 1011.0
20260904101502 72 144 0.0 0.0 0.00 0.00 0.00 93 1011.1
20260904101000 72 144 0.0 0.0 0.00 0.00 0.00 93 1011.0
20260904100600 72 144 0.0 0.0 0.00 0.00 0.00 93 1011.1
20260904100116 72 144 0.0 0.0 0.00 0.00 0.00 93 1011.1
20260904095600 72 144 0.0 0.0 0.00 0.00 0.00 93 1011.0
20260904095100 73 144 0.0 0.0 0.00 0.00 0.00 93 1011.0
20260904094615 73 144 0.0 0.0 0.00 0.00 0.00 93 1011.1
20260904094059 73 144 0.0 0.0 0.00 0.00 0.00 93 1011.2
20260904093602 73 144 0.0 1.0 0.00 0.00 0.00 93 1011.1
20260904093105 73 144 0.0 1.0 0.00 0.00 0.00 93 1011.2
20260904092558 73 144 0.0 2.0 0.00 0.00 0.00 92 1011.1
20260904092058 73 144 0.0 2.0 0.00 0.00 0.00 92 1011.2
20260904091557 73 144 0.0 1.0 0.00 0.00 0.00 92 1011.2
20260904091057 73 144 0.0 0.0 0.00 0.00 0.00 92 1011.2
20260904090556 73 144 0.0 0.0 0.00 0.00 0.00 92 1011.2
20260904090057 73 144 0.0 0.0 0.00 0.00 0.00 92 1011.2
20260904085556 73 144 0.0 0.0 0.00 0.00 0.00 92 1011.2
20260904085056 73 144 0.0 2.0 0.00 0.00 0.00 92 1011.2
20260904084557 73 144 0.0 2.0 0.00 0.00 0.00 92 1011.1
20260904084057 73 144 0.0 0.0 0.00 0.00 0.00 92 1011.0
20260904083555 73 144 0.0 0.0 0.00 0.00 0.00 92 1011.0
20260904083100 73 144 0.0 0.0 0.00 0.00 0.00 92 1010.9
20260904082555 73 144 0.0 0.0 0.00 0.00 0.00 92 1010.9
20260904082055 73 144 0.0 0.0 0.00 0.00 0.00 92 1010.8
20260904081554 73 144 0.0 0.0 0.00 0.00 0.00 92 1010.7
20260904081053 73 144 0.0 0.0 0.00 0.00 0.00 92 1010.7
20260904080553 74 144 0.0 0.0 0.00 0.00 0.00 91 1010.7
20260904080111 74 144 0.0 0.0 0.00 0.00 0.00 92 1010.7
20260904075553 74 144 0.0 0.0 0.00 0.00 0.00 92 1010.7
20260904075052 74 144 0.0 0.0 0.00 0.00 0.00 92 1010.7
20260904074605 74 144 0.0 0.0 0.00 0.00 0.00 92 1010.7
20260904074051 74 144 0.0 0.0 0.00 0.00 0.00 92 1010.7
20260904073551 74 144 0.0 0.0 0.00 0.00 0.00 92 1010.7
20260904073051 74 144 0.0 0.0 0.00 0.00 0.00 92 1010.7
20260904072551 74 144 0.0 1.0 0.00 0.00 0.00 92 1010.7
20260904072048 74 144 0.0 2.0 0.00 0.00 0.00 92 1010.8
20260904071552 74 144 0.0 2.0 0.00 0.00 0.00 92 1010.9
20260904071048 74 144 0.0 2.0 0.00 0.00 0.00 93 1011.1
20260904070548 74 144 0.0 2.0 0.00 0.00 0.00 93 1011.1
20260904070048 74 144 1.0 2.0 0.00 0.00 0.00 93 1011.2
20260904065547 74 144 0.0 0.0 0.00 0.00 0.00 92 1011.1
20260904065046 74 144 0.0 0.0 0.00 0.00 0.00 92 1011.2
20260904064546 74 144 0.0 0.0 0.00 0.00 0.00 92 1011.2
20260904064050 74 144 0.0 0.0 0.00 0.00 0.00 91 1011.3
20260904063545 75 144 0.0 0.0 0.00 0.00 0.00 91 1011.4
20260904063049 75 144 0.0 0.0 0.00 0.00 0.00 91 1011.4
20260904062543 75 144 0.0 0.0 0.00 0.00 0.00 92 1011.5
20260904062042 75 144 0.0 0.0 0.00 0.00 0.00 92 1011.5
20260904061542 75 144 0.0 0.0 0.00 0.00 0.00 92 1011.6
20260904061043 75 144 0.0 0.0 0.00 0.00 0.00 92 1011.6
20260904060541 76 144 0.0 0.0 0.00 0.00 0.00 92 1011.6
20260904060109 76 144 0.0 0.0 0.00 0.00 0.00 92 1011.7
20260904055539 76 144 0.0 0.0 0.00 0.00 0.00 92 1011.6
20260904055039 76 144 0.0 0.0 0.00 0.00 0.00 92 1011.6
20260904054540 76 144 0.0 0.0 0.00 0.00 0.00 92 1011.5
20260904054039 76 144 0.0 0.0 0.00 0.00 0.00 91 1011.5
20260904053538 76 144 0.0 1.0 0.00 0.00 0.00 91 1011.4
20260904053124 76 144 0.0 1.0 0.00 0.00 0.00 92 1011.4
20260904052541 76 144 0.0 1.0 0.00 0.00 0.00 92 1011.4
20260904052037 76 144 0.0 2.0 0.00 0.00 0.00 92 1011.4
20260904051554 76 144 0.0 2.0 0.00 0.00 0.00 92 1011.4
20260904051035 76 144 0.0 1.0 0.00 0.00 0.00 93 1011.4
20260904050535 76 144 0.0 1.0 0.00 0.00 0.00 93 1011.4
20260904050036 76 144 0.0 1.0 0.00 0.00 0.00 93 1011.4
20260904045533 76 144 0.0 1.0 0.00 0.00 0.00 92 1011.5
20260904045033 76 144 0.0 1.0 0.00 0.00 0.00 93 1011.4
20260904044536 76 144 0.0 0.0 0.00 0.00 0.00 92 1011.5
20260904044032 75 144 0.0 0.0 0.00 0.00 0.00 92 1011.4
20260904043532 75 144 0.0 0.0 0.00 0.00 0.00 92 1011.5
20260904043033 75 144 0.0 0.0 0.00 0.00 0.00 92 1011.5
20260904042532 75 144 0.0 1.0 0.00 0.00 0.00 91 1011.5
20260904042032 75 144 0.0 1.0 0.00 0.00 0.00 91 1011.5
20260904041531 75 144 0.0 0.0 0.00 0.00 0.00 89 1011.5
20260904041031 76 144 0.0 0.0 0.00 0.00 0.00 89 1011.5
20260904040531 76 144 0.0 0.0 0.00 0.00 0.00 90 1011.6
20260904040031 76 144 0.0 0.0 0.00 0.00 0.00 90 1011.5
20260904035533 77 144 0.0 0.0 0.00 0.00 0.00 90 1011.6
20260904035031 77 144 0.0 0.0 0.00 0.00 0.00 90 1011.5
20260904034531 77 144 0.0 0.0 0.00 0.00 0.00 89 1011.5
20260904034030 77 144 0.0 0.0 0.00 0.00 0.00 89 1011.5
20260904033532 77 144 0.0 0.0 0.00 0.00 0.00 89 1011.5
20260904033030 77 144 0.0 0.0 0.00 0.00 0.00 89 1011.5
20260904032530 77 144 0.0 0.0 0.00 0.00 0.00 89 1011.5
20260904032029 77 144 0.0 0.0 0.00 0.00 0.00 89 1011.5
20260904031529 77 144 0.0 0.0 0.00 0.00 0.00 88 1011.5
20260904031029 77 144 0.0 0.0 0.00 0.00 0.00 88 1011.5
20260904030529 77 144 0.0 0.0 0.00 0.00 0.00 88 1011.5
20260904030029 77 144 0.0 0.0 0.00 0.00 0.00 88 1011.5
20260904025529 77 144 0.0 0.0 0.00 0.00 0.00 88 1011.5
20260904025029 77 144 0.0 0.0 0.00 0.00 0.00 88 1011.5
20260904024533 77 144 0.0 0.0 0.00 0.00 0.00 87 1011.4
20260904024030 78 144 0.0 0.0 0.00 0.00 0.00 87 1011.3
20260904023528 78 144 0.0 0.0 0.00 0.00 0.00 87 1011.3
20260904023029 78 144 0.0 0.0 0.00 0.00 0.00 86 1011.3
20260904022530 78 144 0.0 0.0 0.00 0.00 0.00 86 1011.2
20260904022028 79 144 0.0 0.0 0.00 0.00 0.00 86 1011.2
20260904021532 79 144 0.0 0.0 0.00 0.00 0.00 85 1011.1
20260904021028 79 144 0.0 0.0 0.00 0.00 0.00 84 1011.0
20260904020528 79 144 0.0 1.0 0.00 0.00 0.00 84 1011.0
20260904020028 79 144 0.0 1.0 0.00 0.00 0.00 84 1010.9
20260904015527 79 144 0.0 1.0 0.00 0.00 0.00 83 1010.8
20260904015027 79 144 0.0 1.0 0.00 0.00 0.00 84 1010.7
20260904014527 79 144 0.0 2.0 0.00 0.00 0.00 84 1010.6
20260904014026 78 144 0.0 2.0 0.00 0.00 0.00 85 1010.4
20260904013527 78 144 0.0 1.0 0.00 0.00 0.00 85 1010.5
20260904013027 78 144 0.0 1.0 0.00 0.00 0.00 85 1010.4
20260904012527 78 144 0.0 0.0 0.00 0.00 0.00 85 1010.4
20260904012028 79 144 0.0 0.0 0.00 0.00 0.00 84 1010.4
20260904011531 79 144 0.0 0.0 0.00 0.00 0.00 84 1010.5
20260904011026 80 144 0.0 0.0 0.00 0.00 0.00 83 1010.4
20260904010530 80 144 0.0 0.0 0.00 0.00 0.00 81 1010.4
20260904010026 80 144 0.0 0.0 0.00 0.00 0.00 81 1010.4
20260904005528 81 144 0.0 0.0 0.00 0.00 0.00 80 1010.4
20260904005028 81 144 0.0 0.0 0.00 0.00 0.00 80 1010.3
20260904004526 81 144 0.0 0.0 0.00 0.00 0.00 81 1010.2
20260904004029 82 144 0.0 0.0 0.00 0.00 0.00 78 1010.2
20260904003532 82 144 0.0 0.0 0.00 0.00 0.00 77 1010.2
20260904003025 82 144 0.0 2.0 0.00 0.00 0.00 77 1010.2
20260904002525 83 144 0.0 3.0 0.00 0.00 0.00 76 1010.2
20260904002027 83 144 1.0 3.0 0.00 0.00 0.00 76 1010.1
20260904001528 83 144 0.0 2.0 0.00 0.00 0.00 77 1010.0
20260904001027 84 144 0.0 4.0 0.00 0.00 0.00 75 1010.0
20260904000524 84 144 1.0 4.0 0.00 0.00 0.00 74 1010.0
20260904000024 85 137 1.0 4.0 0.00 0.00 0.00 75 1010.0
20260903235525 86 123 2.0 4.0 0.00 0.00 0.00 74 1010.1
20260903235024 86 118 0.0 4.0 0.00 0.00 0.00 73 1010.2
20260903234522 87 160 0.0 4.0 0.00 0.00 0.00 72 1010.3
20260903234022 87 147 2.0 5.0 0.00 0.00 0.00 72 1010.3
20260903233529 88 149 2.0 7.0 0.00 0.00 0.00 71 1010.3
20260903233022 89 154 4.0 7.0 0.00 0.00 0.00 69 1010.3
20260903232523 91 146 2.0 8.0 0.00 0.00 0.00 69 1010.3
20260903232022 92 143 4.0 8.0 0.00 0.00 0.00 67 1010.3
20260903231523 93 154 0.0 2.0 0.00 0.00 0.00 66 1010.2
20260903231022 94 151 0.0 2.0 0.00 0.00 0.00 66 1010.2
20260903230521 94 188 0.0 4.0 0.00 0.00 0.00 63 1010.3
20260903230021 94 207 0.0 4.0 0.00 0.00 0.00 63 1010.3
20260903225521 95 215 1.0 3.0 0.00 0.00 0.00 63 1010.4
20260903225019 95 204 0.0 3.0 0.00 0.00 0.00 62 1010.4
20260903224530 94 194 0.0 3.0 0.00 0.00 0.00 66 1010.5
20260903224022 94 239 0.0 3.0 0.00 0.00 0.00 65 1010.5
20260903223526 94 206 0.0 3.0 0.00 0.00 0.00 65 1010.6
20260903223028 94 179 0.0 3.0 0.00 0.00 0.00 65 1010.6
20260903222519 93 186 0.0 3.0 0.00 0.00 0.00 65 1010.6
20260903222022 94 194 0.0 5.0 0.00 0.00 0.00 64 1010.5
20260903221518 94 185 0.0 5.0 0.00 0.00 0.00 62 1010.4
20260903221017 95 207 2.0 6.0 0.00 0.00 0.00 61 1010.3
20260903220517 95 208 1.0 6.0 0.00 0.00 0.00 64 1010.3
20260903220017 96 219 1.0 4.0 0.00 0.00 0.00 59 1010.2
20260903215517 96 211 1.0 4.0 0.00 0.00 0.00 59 1010.3
20260903215016 95 211 0.0 4.0 0.00 0.00 0.00 61 1010.3
20260903214516 95 223 1.0 5.0 0.00 0.00 0.00 60 1010.3
20260903214016 95 240 1.0 6.0 0.00 0.00 0.00 58 1010.4
20260903213516 95 198 2.0 6.0 0.00 0.00 0.00 60 1010.4
20260903213025 95 194 1.0 6.0 0.00 0.00 0.00 62 1010.4
20260903212515 96 210 2.0 6.0 0.00 0.00 0.00 59 1010.4
20260903212014 96 203 1.0 4.0 0.00 0.00 0.00 60 1010.5
20260903211513 96 159 1.0 5.0 0.00 0.00 0.00 62 1010.4
20260903211013 96 207 2.0 5.0 0.00 0.00 0.00 57 1010.5
20260903210513 96 173 2.0 5.0 0.00 0.00 0.00 60 1010.6
20260903210013 95 161 2.0 5.0 0.00 0.00 0.00 58 1010.6
20260903205511 95 25 0.0 2.0 0.00 0.00 0.00 62 1010.6
20260903205009 95 25 0.0 3.0 0.00 0.00 0.00 62 1010.6
20260903204509 95 360 0.0 3.0 0.00 0.00 0.00 64 1010.7